User: anonymous   Login
Location: Azul
(36.7830°S, 59.8500°W)
Time: 19:56:26
(UTC-03:00)
Language:

AO-7 - Orbit

View from above orbital plane
View from above orbital plane
View from above satellite
View from above satellite

Ground track
Ground track

The orbit data is extracted from the following two-line orbital elements,

1  7530U 74089B   21296.67585104 -.00000047  00000-0 -58464-5 0  9994
2  7530 101.8724 271.1164 0012335 134.5365  40.3763 12.53650886148036
Epoch (UTC): 23 October 2021 16:13:13
Eccentricity: 0.0012335
inclination: 101.8724°
perigee height: 1439 km
apogee height: 1459 km
right ascension of ascending node: 271.1164°
argument of perigee: 134.5365°
revolutions per day: 12.53650886
mean anomaly at epoch: 40.3763°
orbit number at epoch: 14803

The dashed part of the orbit path shows where the satellite is in the earth's shadow,  

DLR